owner,sensor,date,latitude,longitude,air_pressure(mBar),qcFlag 
WAVCIS,ioos:station:WAVCIS:CSI09:1,2013-09-01T00:00:00Z,29.1015,-89.9782,1011.47,11111222 
WAVCIS,ioos:station:WAVCIS:CSI09:1,2013-09-01T01:00:00Z,29.1015,-89.9782,1011.92,11111222 
WAVCIS,ioos:station:WAVCIS:CSI09:1,2013-09-01T02:00:00Z,29.1015,-89.9782,1012.44,11111222 
WAVCIS,ioos:station:WAVCIS:CSI09:1,2013-09-01T03:00:00Z,29.1015,-89.9782,1012.74,11111222 
WAVCIS,ioos:station:WAVCIS:CSI09:1,2013-09-01T04:00:00Z,29.1015,-89.9782,1012.88,11111222 
WAVCIS,ioos:station:WAVCIS:CSI09:1,2013-09-01T05:00:00Z,29.1015,-89.9782,1012.85,11111222 
WAVCIS,ioos:station:WAVCIS:CSI09:1,2013-09-01T06:00:00Z,29.1015,-89.9782,1012.53,11111222 
WAVCIS,ioos:station:WAVCIS:CSI09:1,2013-09-01T07:00:00Z,29.1015,-89.9782,1011.79,11111222 
WAVCIS,ioos:station:WAVCIS:CSI09:1,2013-09-01T08:00:00Z,29.1015,-89.9782,1011.73,11111222 
WAVCIS,ioos:station:WAVCIS:CSI09:1,2013-09-01T09:00:00Z,29.1015,-89.9782,1011.8,11111222 
WAVCIS,ioos:station:WAVCIS:CSI09:1,2013-09-01T10:00:00Z,29.1015,-89.9782,1011.95,11111222 
WAVCIS,ioos:station:WAVCIS:CSI09:1,2013-09-01T11:00:00Z,29.1015,-89.9782,1012.37,11111222 
WAVCIS,ioos:station:WAVCIS:CSI09:1,2013-09-01T12:00:00Z,29.1015,-89.9782,1012.99,11111222 
WAVCIS,ioos:station:WAVCIS:CSI09:1,2013-09-01T13:00:00Z,29.1015,-89.9782,1013.16,11111222 
WAVCIS,ioos:station:WAVCIS:CSI09:1,2013-09-01T14:00:00Z,29.1015,-89.9782,1013.59,11111222 
WAVCIS,ioos:station:WAVCIS:CSI09:1,2013-09-01T15:00:00Z,29.1015,-89.9782,1013.83,11111222 
WAVCIS,ioos:station:WAVCIS:CSI09:1,2013-09-01T16:00:00Z,29.1015,-89.9782,1014.03,11111222 
WAVCIS,ioos:station:WAVCIS:CSI09:1,2013-09-01T17:00:00Z,29.1015,-89.9782,1014.23,11111222 
WAVCIS,ioos:station:WAVCIS:CSI09:1,2013-09-01T18:00:00Z,29.1015,-89.9782,1013.78,11111222 
WAVCIS,ioos:station:WAVCIS:CSI09:1,2013-09-01T19:00:00Z,29.1015,-89.9782,1013.54,11111222 
WAVCIS,ioos:station:WAVCIS:CSI09:1,2013-09-01T20:00:00Z,29.1015,-89.9782,1013.03,11111222 
WAVCIS,ioos:station:WAVCIS:CSI09:1,2013-09-01T21:00:00Z,29.1015,-89.9782,1012.37,11111222 
WAVCIS,ioos:station:WAVCIS:CSI09:1,2013-09-01T22:00:00Z,29.1015,-89.9782,1011.94,11111222 
WAVCIS,ioos:station:WAVCIS:CSI09:1,2013-09-01T23:00:00Z,29.1015,-89.9782,1011.57,11111222 
WAVCIS,ioos:station:WAVCIS:CSI09:1,2013-09-02T00:00:00Z,29.1015,-89.9782,1011.4,11111222 
WAVCIS,ioos:station:WAVCIS:CSI09:1,2013-09-02T01:00:00Z,29.1015,-89.9782,1011.59,11111222 
WAVCIS,ioos:station:WAVCIS:CSI09:1,2013-09-02T02:00:00Z,29.1015,-89.9782,1012.13,11111222 
WAVCIS,ioos:station:WAVCIS:CSI09:1,2013-09-02T03:00:00Z,29.1015,-89.9782,1013.05,11111222 
WAVCIS,ioos:station:WAVCIS:CSI09:1,2013-09-02T04:00:00Z,29.1015,-89.9782,1013.38,11111222 
WAVCIS,ioos:station:WAVCIS:CSI09:1,2013-09-02T05:00:00Z,29.1015,-89.9782,1013.45,11111222 
WAVCIS,ioos:station:WAVCIS:CSI09:1,2013-09-02T06:00:00Z,29.1015,-89.9782,1013.4,11111222 
WAVCIS,ioos:station:WAVCIS:CSI09:1,2013-09-02T07:00:00Z,29.1015,-89.9782,1013.31,11111222 
WAVCIS,ioos:station:WAVCIS:CSI09:1,2013-09-02T08:00:00Z,29.1015,-89.9782,1013.01,11111222 
WAVCIS,ioos:station:WAVCIS:CSI09:1,2013-09-02T09:00:00Z,29.1015,-89.9782,1012.54,11111222 
WAVCIS,ioos:station:WAVCIS:CSI09:1,2013-09-02T10:00:00Z,29.1015,-89.9782,1012.78,11111222 
WAVCIS,ioos:station:WAVCIS:CSI09:1,2013-09-02T11:00:00Z,29.1015,-89.9782,1012.9,11111222 
WAVCIS,ioos:station:WAVCIS:CSI09:1,2013-09-02T12:00:00Z,29.1015,-89.9782,1013.45,11111222 
WAVCIS,ioos:station:WAVCIS:CSI09:1,2013-09-02T13:00:00Z,29.1015,-89.9782,1013.94,11111222 
WAVCIS,ioos:station:WAVCIS:CSI09:1,2013-09-02T14:00:00Z,29.1015,-89.9782,1014.56,11111222 
WAVCIS,ioos:station:WAVCIS:CSI09:1,2013-09-02T15:00:00Z,29.1015,-89.9782,1015.21,11111222 
WAVCIS,ioos:station:WAVCIS:CSI09:1,2013-09-02T16:00:00Z,29.1015,-89.9782,1015.48,11111222 
WAVCIS,ioos:station:WAVCIS:CSI09:1,2013-09-02T17:00:00Z,29.1015,-89.9782,1015.4,11111222 
WAVCIS,ioos:station:WAVCIS:CSI09:1,2013-09-02T18:00:00Z,29.1015,-89.9782,1014.92,11111222 
WAVCIS,ioos:station:WAVCIS:CSI09:1,2013-09-02T19:00:00Z,29.1015,-89.9782,1013.84,11111222 
WAVCIS,ioos:station:WAVCIS:CSI09:1,2013-09-02T20:00:00Z,29.1015,-89.9782,1013.08,11111222 
WAVCIS,ioos:station:WAVCIS:CSI09:1,2013-09-02T21:00:00Z,29.1015,-89.9782,1012.24,11111222 
WAVCIS,ioos:station:WAVCIS:CSI09:1,2013-09-02T22:00:00Z,29.1015,-89.9782,1012.1,11111222 
WAVCIS,ioos:station:WAVCIS:CSI09:1,2013-09-02T23:00:00Z,29.1015,-89.9782,1012.31,11111222 
WAVCIS,ioos:station:WAVCIS:CSI09:1,2013-09-03T00:00:00Z,29.1015,-89.9782,1012.46,11111222 
WAVCIS,ioos:station:WAVCIS:CSI09:1,2013-09-03T01:00:00Z,29.1015,-89.9782,1012.77,11111222 
WAVCIS,ioos:station:WAVCIS:CSI09:1,2013-09-03T02:00:00Z,29.1015,-89.9782,1012.78,11111222 
WAVCIS,ioos:station:WAVCIS:CSI09:1,2013-09-03T03:00:00Z,29.1015,-89.9782,1013.04,11111222 
WAVCIS,ioos:station:WAVCIS:CSI09:1,2013-09-03T04:00:00Z,29.1015,-89.9782,1013.13,11111222 
WAVCIS,ioos:station:WAVCIS:CSI09:1,2013-09-03T05:00:00Z,29.1015,-89.9782,1013.1,11111222 
WAVCIS,ioos:station:WAVCIS:CSI09:1,2013-09-03T06:00:00Z,29.1015,-89.9782,1012.93,11111222 
WAVCIS,ioos:station:WAVCIS:CSI09:1,2013-09-03T07:00:00Z,29.1015,-89.9782,1013.0,11111222 
WAVCIS,ioos:station:WAVCIS:CSI09:1,2013-09-03T08:00:00Z,29.1015,-89.9782,1012.83,11111222 
WAVCIS,ioos:station:WAVCIS:CSI09:1,2013-09-03T09:00:00Z,29.1015,-89.9782,1012.85,11111222 
WAVCIS,ioos:station:WAVCIS:CSI09:1,2013-09-03T10:00:00Z,29.1015,-89.9782,1013.1,11111222 
WAVCIS,ioos:station:WAVCIS:CSI09:1,2013-09-03T11:00:00Z,29.1015,-89.9782,1013.34,11111222 
WAVCIS,ioos:station:WAVCIS:CSI09:1,2013-09-03T12:00:00Z,29.1015,-89.9782,1013.86,11111222 
WAVCIS,ioos:station:WAVCIS:CSI09:1,2013-09-03T13:00:00Z,29.1015,-89.9782,1014.34,11111222 
WAVCIS,ioos:station:WAVCIS:CSI09:1,2013-09-03T14:00:00Z,29.1015,-89.9782,1014.79,11111222 
WAVCIS,ioos:station:WAVCIS:CSI09:1,2013-09-03T15:00:00Z,29.1015,-89.9782,1015.22,11111222 
WAVCIS,ioos:station:WAVCIS:CSI09:1,2013-09-03T16:00:00Z,29.1015,-89.9782,1015.95,11111222 
WAVCIS,ioos:station:WAVCIS:CSI09:1,2013-09-03T17:00:00Z,29.1015,-89.9782,1015.82,11111222 
WAVCIS,ioos:station:WAVCIS:CSI09:1,2013-09-03T18:00:00Z,29.1015,-89.9782,1014.71,11111222 
WAVCIS,ioos:station:WAVCIS:CSI09:1,2013-09-03T19:00:00Z,29.1015,-89.9782,1014.17,11111222 
WAVCIS,ioos:station:WAVCIS:CSI09:1,2013-09-03T20:00:00Z,29.1015,-89.9782,1012.89,11111222 
WAVCIS,ioos:station:WAVCIS:CSI09:1,2013-09-03T21:00:00Z,29.1015,-89.9782,1012.21,11111222 
WAVCIS,ioos:station:WAVCIS:CSI09:1,2013-09-03T22:00:00Z,29.1015,-89.9782,1012.31,11111222 
WAVCIS,ioos:station:WAVCIS:CSI09:1,2013-09-03T23:00:00Z,29.1015,-89.9782,1012.54,11111222 
WAVCIS,ioos:station:WAVCIS:CSI09:1,2013-09-04T00:00:00Z,29.1015,-89.9782,1013.76,11111222 
WAVCIS,ioos:station:WAVCIS:CSI09:1,2013-09-04T01:00:00Z,29.1015,-89.9782,1013.5,11111222 
WAVCIS,ioos:station:WAVCIS:CSI09:1,2013-09-04T02:00:00Z,29.1015,-89.9782,1014.07,11111222 
WAVCIS,ioos:station:WAVCIS:CSI09:1,2013-09-04T03:00:00Z,29.1015,-89.9782,1014.74,11111222 
WAVCIS,ioos:station:WAVCIS:CSI09:1,2013-09-04T04:00:00Z,29.1015,-89.9782,1014.19,11111222 
WAVCIS,ioos:station:WAVCIS:CSI09:1,2013-09-04T05:00:00Z,29.1015,-89.9782,1013.77,11111222 
WAVCIS,ioos:station:WAVCIS:CSI09:1,2013-09-04T06:00:00Z,29.1015,-89.9782,1013.83,11111222 
WAVCIS,ioos:station:WAVCIS:CSI09:1,2013-09-04T07:00:00Z,29.1015,-89.9782,1013.56,11111222 
WAVCIS,ioos:station:WAVCIS:CSI09:1,2013-09-04T08:00:00Z,29.1015,-89.9782,1013.5,11111222 
WAVCIS,ioos:station:WAVCIS:CSI09:1,2013-09-04T09:00:00Z,29.1015,-89.9782,1013.84,11111222 
WAVCIS,ioos:station:WAVCIS:CSI09:1,2013-09-04T10:00:00Z,29.1015,-89.9782,1014.13,11111222 
WAVCIS,ioos:station:WAVCIS:CSI09:1,2013-09-04T11:00:00Z,29.1015,-89.9782,1014.53,11111222 
WAVCIS,ioos:station:WAVCIS:CSI09:1,2013-09-04T12:00:00Z,29.1015,-89.9782,1015.22,11111222 
WAVCIS,ioos:station:WAVCIS:CSI09:1,2013-09-04T13:00:00Z,29.1015,-89.9782,1015.79,11111222 
WAVCIS,ioos:station:WAVCIS:CSI09:1,2013-09-04T14:00:00Z,29.1015,-89.9782,1016.67,11111222 
WAVCIS,ioos:station:WAVCIS:CSI09:1,2013-09-04T15:00:00Z,29.1015,-89.9782,1017.38,11111222 
WAVCIS,ioos:station:WAVCIS:CSI09:1,2013-09-04T16:00:00Z,29.1015,-89.9782,1017.6,11111222 
WAVCIS,ioos:station:WAVCIS:CSI09:1,2013-09-04T17:00:00Z,29.1015,-89.9782,1017.5,11111222 
WAVCIS,ioos:station:WAVCIS:CSI09:1,2013-09-04T18:00:00Z,29.1015,-89.9782,1016.97,11111222 
WAVCIS,ioos:station:WAVCIS:CSI09:1,2013-09-04T19:00:00Z,29.1015,-89.9782,1016.63,11111222 
WAVCIS,ioos:station:WAVCIS:CSI09:1,2013-09-04T20:00:00Z,29.1015,-89.9782,1016.0,11111222 
WAVCIS,ioos:station:WAVCIS:CSI09:1,2013-09-04T21:00:00Z,29.1015,-89.9782,1015.56,11111222 
WAVCIS,ioos:station:WAVCIS:CSI09:1,2013-09-04T22:00:00Z,29.1015,-89.9782,1015.51,11111222 
WAVCIS,ioos:station:WAVCIS:CSI09:1,2013-09-04T23:00:00Z,29.1015,-89.9782,1015.53,11111222 
WAVCIS,ioos:station:WAVCIS:CSI09:1,2013-09-05T00:00:00Z,29.1015,-89.9782,1015.8,11111222 
WAVCIS,ioos:station:WAVCIS:CSI09:1,2013-09-05T01:00:00Z,29.1015,-89.9782,1015.83,11111222 
WAVCIS,ioos:station:WAVCIS:CSI09:1,2013-09-05T02:00:00Z,29.1015,-89.9782,1016.68,11111222 
WAVCIS,ioos:station:WAVCIS:CSI09:1,2013-09-05T03:00:00Z,29.1015,-89.9782,1016.73,11111222 
WAVCIS,ioos:station:WAVCIS:CSI09:1,2013-09-05T04:00:00Z,29.1015,-89.9782,1016.68,11111222 
WAVCIS,ioos:station:WAVCIS:CSI09:1,2013-09-05T05:00:00Z,29.1015,-89.9782,1016.63,11111222 
WAVCIS,ioos:station:WAVCIS:CSI09:1,2013-09-05T06:00:00Z,29.1015,-89.9782,1016.56,11111222 
WAVCIS,ioos:station:WAVCIS:CSI09:1,2013-09-05T07:00:00Z,29.1015,-89.9782,1016.34,11111222 
WAVCIS,ioos:station:WAVCIS:CSI09:1,2013-09-05T08:00:00Z,29.1015,-89.9782,1016.08,11111222 
WAVCIS,ioos:station:WAVCIS:CSI09:1,2013-09-05T09:00:00Z,29.1015,-89.9782,1016.24,11111222 
WAVCIS,ioos:station:WAVCIS:CSI09:1,2013-09-05T10:00:00Z,29.1015,-89.9782,1016.44,11111222 
WAVCIS,ioos:station:WAVCIS:CSI09:1,2013-09-05T11:00:00Z,29.1015,-89.9782,1016.98,11111222 
WAVCIS,ioos:station:WAVCIS:CSI09:1,2013-09-05T12:00:00Z,29.1015,-89.9782,1017.18,11111222 
WAVCIS,ioos:station:WAVCIS:CSI09:1,2013-09-05T13:00:00Z,29.1015,-89.9782,1017.78,11111222 
WAVCIS,ioos:station:WAVCIS:CSI09:1,2013-09-05T14:00:00Z,29.1015,-89.9782,1017.8,11111222 
WAVCIS,ioos:station:WAVCIS:CSI09:1,2013-09-05T15:00:00Z,29.1015,-89.9782,1018.38,11111222 
WAVCIS,ioos:station:WAVCIS:CSI09:1,2013-09-05T16:00:00Z,29.1015,-89.9782,1018.83,11111222 
WAVCIS,ioos:station:WAVCIS:CSI09:1,2013-09-05T17:00:00Z,29.1015,-89.9782,1018.67,11111222 
WAVCIS,ioos:station:WAVCIS:CSI09:1,2013-09-05T18:00:00Z,29.1015,-89.9782,1018.23,11111222 
WAVCIS,ioos:station:WAVCIS:CSI09:1,2013-09-05T19:00:00Z,29.1015,-89.9782,1017.44,11111222 
WAVCIS,ioos:station:WAVCIS:CSI09:1,2013-09-05T20:00:00Z,29.1015,-89.9782,1017.04,11111222 
WAVCIS,ioos:station:WAVCIS:CSI09:1,2013-09-05T21:00:00Z,29.1015,-89.9782,1016.92,11111222 
WAVCIS,ioos:station:WAVCIS:CSI09:1,2013-09-05T22:00:00Z,29.1015,-89.9782,1016.94,11111222 
WAVCIS,ioos:station:WAVCIS:CSI09:1,2013-09-05T23:00:00Z,29.1015,-89.9782,1016.81,11111222 
WAVCIS,ioos:station:WAVCIS:CSI09:1,2013-09-06T00:00:00Z,29.1015,-89.9782,1016.6,11111222 
WAVCIS,ioos:station:WAVCIS:CSI09:1,2013-09-06T01:00:00Z,29.1015,-89.9782,1016.42,11111222 
WAVCIS,ioos:station:WAVCIS:CSI09:1,2013-09-06T02:00:00Z,29.1015,-89.9782,1017.18,11111222 
WAVCIS,ioos:station:WAVCIS:CSI09:1,2013-09-06T03:00:00Z,29.1015,-89.9782,1017.77,11111222 
WAVCIS,ioos:station:WAVCIS:CSI09:1,2013-09-06T04:00:00Z,29.1015,-89.9782,1017.59,11111222 
WAVCIS,ioos:station:WAVCIS:CSI09:1,2013-09-06T05:00:00Z,29.1015,-89.9782,1017.22,11111222 
WAVCIS,ioos:station:WAVCIS:CSI09:1,2013-09-06T06:00:00Z,29.1015,-89.9782,1017.03,11111222 
WAVCIS,ioos:station:WAVCIS:CSI09:1,2013-09-06T07:00:00Z,29.1015,-89.9782,1016.54,11111222 
WAVCIS,ioos:station:WAVCIS:CSI09:1,2013-09-06T08:00:00Z,29.1015,-89.9782,1016.34,11111222 
WAVCIS,ioos:station:WAVCIS:CSI09:1,2013-09-06T09:00:00Z,29.1015,-89.9782,1016.19,11111222 
WAVCIS,ioos:station:WAVCIS:CSI09:1,2013-09-06T10:00:00Z,29.1015,-89.9782,1016.28,11111222 
WAVCIS,ioos:station:WAVCIS:CSI09:1,2013-09-06T11:00:00Z,29.1015,-89.9782,1016.76,11111222 
WAVCIS,ioos:station:WAVCIS:CSI09:1,2013-09-06T12:00:00Z,29.1015,-89.9782,1017.14,11111222 
WAVCIS,ioos:station:WAVCIS:CSI09:1,2013-09-06T13:00:00Z,29.1015,-89.9782,1017.63,11111222 
WAVCIS,ioos:station:WAVCIS:CSI09:1,2013-09-06T14:00:00Z,29.1015,-89.9782,1017.82,11111222 
WAVCIS,ioos:station:WAVCIS:CSI09:1,2013-09-06T15:00:00Z,29.1015,-89.9782,1018.08,11111222 
WAVCIS,ioos:station:WAVCIS:CSI09:1,2013-09-06T16:00:00Z,29.1015,-89.9782,1018.27,11111222 
WAVCIS,ioos:station:WAVCIS:CSI09:1,2013-09-06T17:00:00Z,29.1015,-89.9782,1018.29,11111222 
WAVCIS,ioos:station:WAVCIS:CSI09:1,2013-09-06T18:00:00Z,29.1015,-89.9782,1017.77,11111222 
WAVCIS,ioos:station:WAVCIS:CSI09:1,2013-09-06T19:00:00Z,29.1015,-89.9782,1017.03,11111222 
WAVCIS,ioos:station:WAVCIS:CSI09:1,2013-09-06T20:00:00Z,29.1015,-89.9782,1016.27,11111222 
WAVCIS,ioos:station:WAVCIS:CSI09:1,2013-09-06T21:00:00Z,29.1015,-89.9782,1015.56,11111222 
WAVCIS,ioos:station:WAVCIS:CSI09:1,2013-09-06T22:00:00Z,29.1015,-89.9782,1015.45,11111222 
WAVCIS,ioos:station:WAVCIS:CSI09:1,2013-09-06T23:00:00Z,29.1015,-89.9782,1015.21,11111222 
WAVCIS,ioos:station:WAVCIS:CSI09:1,2013-09-07T00:00:00Z,29.1015,-89.9782,1015.12,11111222 
WAVCIS,ioos:station:WAVCIS:CSI09:1,2013-09-07T01:00:00Z,29.1015,-89.9782,1015.22,11111222 
WAVCIS,ioos:station:WAVCIS:CSI09:1,2013-09-07T02:00:00Z,29.1015,-89.9782,1015.45,11111222 
WAVCIS,ioos:station:WAVCIS:CSI09:1,2013-09-07T03:00:00Z,29.1015,-89.9782,1015.67,11111222 
WAVCIS,ioos:station:WAVCIS:CSI09:1,2013-09-07T04:00:00Z,29.1015,-89.9782,1015.83,11111222 
WAVCIS,ioos:station:WAVCIS:CSI09:1,2013-09-07T05:00:00Z,29.1015,-89.9782,1015.42,11111222 
WAVCIS,ioos:station:WAVCIS:CSI09:1,2013-09-07T06:00:00Z,29.1015,-89.9782,1015.23,11111222 
WAVCIS,ioos:station:WAVCIS:CSI09:1,2013-09-07T07:00:00Z,29.1015,-89.9782,1014.98,11111222 
WAVCIS,ioos:station:WAVCIS:CSI09:1,2013-09-07T08:00:00Z,29.1015,-89.9782,1014.96,11111222 
WAVCIS,ioos:station:WAVCIS:CSI09:1,2013-09-07T09:00:00Z,29.1015,-89.9782,1014.62,11111222 
WAVCIS,ioos:station:WAVCIS:CSI09:1,2013-09-07T10:00:00Z,29.1015,-89.9782,1014.61,11111222 
WAVCIS,ioos:station:WAVCIS:CSI09:1,2013-09-07T11:00:00Z,29.1015,-89.9782,1015.0,11111222 
WAVCIS,ioos:station:WAVCIS:CSI09:1,2013-09-07T12:00:00Z,29.1015,-89.9782,1015.35,11111222 
WAVCIS,ioos:station:WAVCIS:CSI09:1,2013-09-07T13:00:00Z,29.1015,-89.9782,1015.8,11111222 
WAVCIS,ioos:station:WAVCIS:CSI09:1,2013-09-07T14:00:00Z,29.1015,-89.9782,1016.1,11111222 
WAVCIS,ioos:station:WAVCIS:CSI09:1,2013-09-07T15:00:00Z,29.1015,-89.9782,1016.52,11111222 
WAVCIS,ioos:station:WAVCIS:CSI09:1,2013-09-07T16:00:00Z,29.1015,-89.9782,1016.94,11111222 
WAVCIS,ioos:station:WAVCIS:CSI09:1,2013-09-07T17:00:00Z,29.1015,-89.9782,1016.57,11111222 
WAVCIS,ioos:station:WAVCIS:CSI09:1,2013-09-07T18:00:00Z,29.1015,-89.9782,1016.35,11111222 
WAVCIS,ioos:station:WAVCIS:CSI09:1,2013-09-07T19:00:00Z,29.1015,-89.9782,1015.82,11111222 
WAVCIS,ioos:station:WAVCIS:CSI09:1,2013-09-07T20:00:00Z,29.1015,-89.9782,1015.1,11111222 
WAVCIS,ioos:station:WAVCIS:CSI09:1,2013-09-07T21:00:00Z,29.1015,-89.9782,1015.02,11111222 
WAVCIS,ioos:station:WAVCIS:CSI09:1,2013-09-07T22:00:00Z,29.1015,-89.9782,1014.41,11111222 
WAVCIS,ioos:station:WAVCIS:CSI09:1,2013-09-07T23:00:00Z,29.1015,-89.9782,1014.44,11111222 
WAVCIS,ioos:station:WAVCIS:CSI09:1,2013-09-08T00:00:00Z,29.1015,-89.9782,1014.58,11111222 
WAVCIS,ioos:station:WAVCIS:CSI09:1,2013-09-08T01:00:00Z,29.1015,-89.9782,1014.75,11111222 
WAVCIS,ioos:station:WAVCIS:CSI09:1,2013-09-08T02:00:00Z,29.1015,-89.9782,1014.88,11111222 
WAVCIS,ioos:station:WAVCIS:CSI09:1,2013-09-08T03:00:00Z,29.1015,-89.9782,1015.2,11111222 
WAVCIS,ioos:station:WAVCIS:CSI09:1,2013-09-08T04:00:00Z,29.1015,-89.9782,1015.06,11111222 
WAVCIS,ioos:station:WAVCIS:CSI09:1,2013-09-08T05:00:00Z,29.1015,-89.9782,1014.77,11111222 
WAVCIS,ioos:station:WAVCIS:CSI09:1,2013-09-08T06:00:00Z,29.1015,-89.9782,1014.41,11111222 
WAVCIS,ioos:station:WAVCIS:CSI09:1,2013-09-08T07:00:00Z,29.1015,-89.9782,1014.02,11111222 
WAVCIS,ioos:station:WAVCIS:CSI09:1,2013-09-08T08:00:00Z,29.1015,-89.9782,1013.14,11111222 
WAVCIS,ioos:station:WAVCIS:CSI09:1,2013-09-08T09:00:00Z,29.1015,-89.9782,1013.08,11111222 
WAVCIS,ioos:station:WAVCIS:CSI09:1,2013-09-08T10:00:00Z,29.1015,-89.9782,1013.12,11111222 
WAVCIS,ioos:station:WAVCIS:CSI09:1,2013-09-08T11:00:00Z,29.1015,-89.9782,1013.36,11111222 
WAVCIS,ioos:station:WAVCIS:CSI09:1,2013-09-08T12:00:00Z,29.1015,-89.9782,1013.92,11111222 
WAVCIS,ioos:station:WAVCIS:CSI09:1,2013-09-08T13:00:00Z,29.1015,-89.9782,1014.6,11111222 
WAVCIS,ioos:station:WAVCIS:CSI09:1,2013-09-08T14:00:00Z,29.1015,-89.9782,1014.78,11111222 
WAVCIS,ioos:station:WAVCIS:CSI09:1,2013-09-08T15:00:00Z,29.1015,-89.9782,1014.89,11111222 
WAVCIS,ioos:station:WAVCIS:CSI09:1,2013-09-08T16:00:00Z,29.1015,-89.9782,1015.12,11111222 
WAVCIS,ioos:station:WAVCIS:CSI09:1,2013-09-08T17:00:00Z,29.1015,-89.9782,1014.83,11111222 
WAVCIS,ioos:station:WAVCIS:CSI09:1,2013-09-08T18:00:00Z,29.1015,-89.9782,1014.71,11111222 
WAVCIS,ioos:station:WAVCIS:CSI09:1,2013-09-08T19:00:00Z,29.1015,-89.9782,1014.19,11111222 
WAVCIS,ioos:station:WAVCIS:CSI09:1,2013-09-08T20:00:00Z,29.1015,-89.9782,1013.63,11111222 
WAVCIS,ioos:station:WAVCIS:CSI09:1,2013-09-08T21:00:00Z,29.1015,-89.9782,1013.26,11111222 
WAVCIS,ioos:station:WAVCIS:CSI09:1,2013-09-08T22:00:00Z,29.1015,-89.9782,1013.42,11111222 
WAVCIS,ioos:station:WAVCIS:CSI09:1,2013-09-08T23:00:00Z,29.1015,-89.9782,1013.13,11111222 
WAVCIS,ioos:station:WAVCIS:CSI09:1,2013-09-09T00:00:00Z,29.1015,-89.9782,1013.47,11111222 
WAVCIS,ioos:station:WAVCIS:CSI09:1,2013-09-09T01:00:00Z,29.1015,-89.9782,1013.94,11111222 
WAVCIS,ioos:station:WAVCIS:CSI09:1,2013-09-09T02:00:00Z,29.1015,-89.9782,1014.01,11111222 
WAVCIS,ioos:station:WAVCIS:CSI09:1,2013-09-09T03:00:00Z,29.1015,-89.9782,1014.3,11111222 
WAVCIS,ioos:station:WAVCIS:CSI09:1,2013-09-09T04:00:00Z,29.1015,-89.9782,1014.21,11111222 
WAVCIS,ioos:station:WAVCIS:CSI09:1,2013-09-09T05:00:00Z,29.1015,-89.9782,1014.29,11111222 
WAVCIS,ioos:station:WAVCIS:CSI09:1,2013-09-09T06:00:00Z,29.1015,-89.9782,1013.95,11111222 
WAVCIS,ioos:station:WAVCIS:CSI09:1,2013-09-09T07:00:00Z,29.1015,-89.9782,1013.74,11111222 
WAVCIS,ioos:station:WAVCIS:CSI09:1,2013-09-09T08:00:00Z,29.1015,-89.9782,1013.54,11111222 
WAVCIS,ioos:station:WAVCIS:CSI09:1,2013-09-09T09:00:00Z,29.1015,-89.9782,1013.59,11111222 
WAVCIS,ioos:station:WAVCIS:CSI09:1,2013-09-09T10:00:00Z,29.1015,-89.9782,1013.75,11111222 
WAVCIS,ioos:station:WAVCIS:CSI09:1,2013-09-09T11:00:00Z,29.1015,-89.9782,1013.86,11111222 
WAVCIS,ioos:station:WAVCIS:CSI09:1,2013-09-09T12:00:00Z,29.1015,-89.9782,1014.65,11111222 
WAVCIS,ioos:station:WAVCIS:CSI09:1,2013-09-09T13:00:00Z,29.1015,-89.9782,1015.24,11111222 
WAVCIS,ioos:station:WAVCIS:CSI09:1,2013-09-09T14:00:00Z,29.1015,-89.9782,1015.83,11111222 
WAVCIS,ioos:station:WAVCIS:CSI09:1,2013-09-09T15:00:00Z,29.1015,-89.9782,1016.39,11111222 
WAVCIS,ioos:station:WAVCIS:CSI09:1,2013-09-09T16:00:00Z,29.1015,-89.9782,1016.41,11111222 
WAVCIS,ioos:station:WAVCIS:CSI09:1,2013-09-09T17:00:00Z,29.1015,-89.9782,1016.58,11111222 
WAVCIS,ioos:station:WAVCIS:CSI09:1,2013-09-09T18:00:00Z,29.1015,-89.9782,1016.35,11111222 
WAVCIS,ioos:station:WAVCIS:CSI09:1,2013-09-09T19:00:00Z,29.1015,-89.9782,1015.9,11111222 
WAVCIS,ioos:station:WAVCIS:CSI09:1,2013-09-09T20:00:00Z,29.1015,-89.9782,1015.27,11111222 
WAVCIS,ioos:station:WAVCIS:CSI09:1,2013-09-09T21:00:00Z,29.1015,-89.9782,1015.11,11111222 
WAVCIS,ioos:station:WAVCIS:CSI09:1,2013-09-09T22:00:00Z,29.1015,-89.9782,1015.01,11111222 
WAVCIS,ioos:station:WAVCIS:CSI09:1,2013-09-09T23:00:00Z,29.1015,-89.9782,1014.99,11111222 
WAVCIS,ioos:station:WAVCIS:CSI09:1,2013-09-10T00:00:00Z,29.1015,-89.9782,1015.21,11111222 
WAVCIS,ioos:station:WAVCIS:CSI09:1,2013-09-10T01:00:00Z,29.1015,-89.9782,1015.13,11111222 
WAVCIS,ioos:station:WAVCIS:CSI09:1,2013-09-10T02:00:00Z,29.1015,-89.9782,1015.65,11111222 
WAVCIS,ioos:station:WAVCIS:CSI09:1,2013-09-10T03:00:00Z,29.1015,-89.9782,1015.77,11111222 
WAVCIS,ioos:station:WAVCIS:CSI09:1,2013-09-10T04:00:00Z,29.1015,-89.9782,1015.78,11111222 
WAVCIS,ioos:station:WAVCIS:CSI09:1,2013-09-10T05:00:00Z,29.1015,-89.9782,1015.62,11111222 
WAVCIS,ioos:station:WAVCIS:CSI09:1,2013-09-10T06:00:00Z,29.1015,-89.9782,1015.42,11111222 
WAVCIS,ioos:station:WAVCIS:CSI09:1,2013-09-10T07:00:00Z,29.1015,-89.9782,1015.37,11111222 
WAVCIS,ioos:station:WAVCIS:CSI09:1,2013-09-10T08:00:00Z,29.1015,-89.9782,1015.19,11111222 
WAVCIS,ioos:station:WAVCIS:CSI09:1,2013-09-10T09:00:00Z,29.1015,-89.9782,1015.37,11111222 
WAVCIS,ioos:station:WAVCIS:CSI09:1,2013-09-10T10:00:00Z,29.1015,-89.9782,1015.72,11111222 
WAVCIS,ioos:station:WAVCIS:CSI09:1,2013-09-10T11:00:00Z,29.1015,-89.9782,1016.18,11111222 
WAVCIS,ioos:station:WAVCIS:CSI09:1,2013-09-10T12:00:00Z,29.1015,-89.9782,1016.79,11111222 
WAVCIS,ioos:station:WAVCIS:CSI09:1,2013-09-10T13:00:00Z,29.1015,-89.9782,1017.44,11111222 
WAVCIS,ioos:station:WAVCIS:CSI09:1,2013-09-10T14:00:00Z,29.1015,-89.9782,1017.93,11111222 
WAVCIS,ioos:station:WAVCIS:CSI09:1,2013-09-10T15:00:00Z,29.1015,-89.9782,1018.01,11111222 
WAVCIS,ioos:station:WAVCIS:CSI09:1,2013-09-10T16:00:00Z,29.1015,-89.9782,1018.16,11111222 
WAVCIS,ioos:station:WAVCIS:CSI09:1,2013-09-10T17:00:00Z,29.1015,-89.9782,1018.18,11111222 
WAVCIS,ioos:station:WAVCIS:CSI09:1,2013-09-10T18:00:00Z,29.1015,-89.9782,1018.11,11111222 
WAVCIS,ioos:station:WAVCIS:CSI09:1,2013-09-10T19:00:00Z,29.1015,-89.9782,1017.72,11111222 
WAVCIS,ioos:station:WAVCIS:CSI09:1,2013-09-10T20:00:00Z,29.1015,-89.9782,1017.17,11111222 
WAVCIS,ioos:station:WAVCIS:CSI09:1,2013-09-10T21:00:00Z,29.1015,-89.9782,1016.49,11111222 
WAVCIS,ioos:station:WAVCIS:CSI09:1,2013-09-10T22:00:00Z,29.1015,-89.9782,1016.12,11111222 
WAVCIS,ioos:station:WAVCIS:CSI09:1,2013-09-10T23:00:00Z,29.1015,-89.9782,1016.23,11111222 
WAVCIS,ioos:station:WAVCIS:CSI09:1,2013-09-11T00:00:00Z,29.1015,-89.9782,1016.48,11111222 
WAVCIS,ioos:station:WAVCIS:CSI09:1,2013-09-11T01:00:00Z,29.1015,-89.9782,1016.86,11111222 
WAVCIS,ioos:station:WAVCIS:CSI09:1,2013-09-11T02:00:00Z,29.1015,-89.9782,1017.13,11111222 
WAVCIS,ioos:station:WAVCIS:CSI09:1,2013-09-11T03:00:00Z,29.1015,-89.9782,1017.47,11111222 
WAVCIS,ioos:station:WAVCIS:CSI09:1,2013-09-11T04:00:00Z,29.1015,-89.9782,1017.52,11111222 
WAVCIS,ioos:station:WAVCIS:CSI09:1,2013-09-11T05:00:00Z,29.1015,-89.9782,1017.35,11111222 
WAVCIS,ioos:station:WAVCIS:CSI09:1,2013-09-11T06:00:00Z,29.1015,-89.9782,1017.06,11111222 
WAVCIS,ioos:station:WAVCIS:CSI09:1,2013-09-11T07:00:00Z,29.1015,-89.9782,1016.73,11111222 
WAVCIS,ioos:station:WAVCIS:CSI09:1,2013-09-11T08:00:00Z,29.1015,-89.9782,1016.57,11111222 
WAVCIS,ioos:station:WAVCIS:CSI09:1,2013-09-11T09:00:00Z,29.1015,-89.9782,1016.34,11111222 
WAVCIS,ioos:station:WAVCIS:CSI09:1,2013-09-11T10:00:00Z,29.1015,-89.9782,1016.45,11111222 
WAVCIS,ioos:station:WAVCIS:CSI09:1,2013-09-11T11:00:00Z,29.1015,-89.9782,1016.58,11111222 
WAVCIS,ioos:station:WAVCIS:CSI09:1,2013-09-11T12:00:00Z,29.1015,-89.9782,1017.2,11111222 
WAVCIS,ioos:station:WAVCIS:CSI09:1,2013-09-11T13:00:00Z,29.1015,-89.9782,1017.5,11111222 
WAVCIS,ioos:station:WAVCIS:CSI09:1,2013-09-11T14:00:00Z,29.1015,-89.9782,1017.63,11111222 
WAVCIS,ioos:station:WAVCIS:CSI09:1,2013-09-11T15:00:00Z,29.1015,-89.9782,1018.02,11111222 
WAVCIS,ioos:station:WAVCIS:CSI09:1,2013-09-11T16:00:00Z,29.1015,-89.9782,1018.16,11111222 
WAVCIS,ioos:station:WAVCIS:CSI09:1,2013-09-11T17:00:00Z,29.1015,-89.9782,1018.19,11111222 
WAVCIS,ioos:station:WAVCIS:CSI09:1,2013-09-11T18:00:00Z,29.1015,-89.9782,1017.71,11111222 
WAVCIS,ioos:station:WAVCIS:CSI09:1,2013-09-11T19:00:00Z,29.1015,-89.9782,1017.31,11111222 
WAVCIS,ioos:station:WAVCIS:CSI09:1,2013-09-11T20:00:00Z,29.1015,-89.9782,1016.74,11111222 
WAVCIS,ioos:station:WAVCIS:CSI09:1,2013-09-11T21:00:00Z,29.1015,-89.9782,1016.34,11111222 
WAVCIS,ioos:station:WAVCIS:CSI09:1,2013-09-11T22:00:00Z,29.1015,-89.9782,1016.24,11111222 